Other Public Products
Issued by NWS Grand Forks, ND

Home | Current Version | Previous Version | Graphics & Text | Print | Product List | Glossary On
Versions: 1 2 3 4 5 6 7 8 9 10 11 12 13 14 15 16 17 18 19 20 21 22 23 24 25 26 27 28 29 30 31 32 33 34 35 36 37 38 39 40 41 42 43 44 45 46 47 48 49 50
000
FPUS83 KFGF 101231
OPUFGF
PRAIRIE TO PINES WEATHER ROUNDUP
NATIONAL WEATHER SERVICE EASTERN NORTH DAKOTA/GRAND FORKS ND
600 AM CST SUN DEC 10 2017

 **SATELLITE DATA USED TO AUGMENT SKY COVER AT AUTOMATED STATIONS**
 *****  WEATHER ACROSS EASTERN NORTH DAKOTA  *****

CITY           SKY/WX    TMP DP  RH WIND       PRES   REMARKS
GRAND FORKS    MOCLDY    19  17  92 NW7       30.01R WCI  10
6HR MIN TEMP:  19; 6HR MAX TEMP:  29;

GRND FORKS AFB MOCLDY    20  16  86 N7        30.01R WCI  11
GRND FORKS NWS   N/A     19 N/A N/A N3          N/A
BUXTON           N/A     19  17  93 NW10        N/A  WCI   7
DEVILS LAKE    FAIR      23  20  88 W3        29.98S
6HR MIN TEMP:  22; 6HR MAX TEMP:  29;

FARGO          FAIR      22  18  85 NW10      29.99R WCI  11
6HR MIN TEMP:  22; 6HR MAX TEMP:  31;

WAHPETON ARPT  FAIR      27  19  74 NW10      30.00R WCI  17
$$

 *****  WEATHER ACROSS CENTRAL AND WESTERN NORTH DAKOTA  *****

CITY           SKY/WX    TMP DP  RH WIND       PRES   REMARKS
JAMESTOWN      FAIR      31  25  78 NW12      29.99R WCI  22
6HR MIN TEMP:  31; 6HR MAX TEMP:  34;

BISMARCK       FAIR      36  24  62 W12       30.06R
6HR MIN TEMP:  36; 6HR MAX TEMP:  44;

MINOT          FAIR      31  23  72 SW8       29.99F WCI  23
6HR MIN TEMP:  31; 6HR MAX TEMP:  38;

MINOT AFB      FAIR      30  23  74 W12       29.98F WCI  20
6HR MIN TEMP:  29; 6HR MAX TEMP:  36;

GARRISON         N/A     30  21  69 NW8       30.03S WCI  22
6HR MIN TEMP:  28; 6HR MAX TEMP:  38;

WILLISTON      CLOUDY    38  19  46 E6        30.08S
6HR MIN TEMP:  31; 6HR MAX TEMP:  41;

DICKINSON      FAIR      32  18  56 W17       30.07S WCI  21
6HR MIN TEMP:  32; 6HR MAX TEMP:  39;

HETTINGER      FAIR      38  14  37 W23       30.12F
6HR MIN TEMP:  34; 6HR MAX TEMP:  41;

$$

 *****  OTHER OBSERVATIONS NORTHEAST NORTH DAKOTA  *****

CITY           SKY/WX    TMP DP  RH WIND       PRES   REMARKS
WALHALLA       FAIR      18  18 100 CALM      30.00S
LANGDON        NOT AVBL
CAVALIER       FAIR      18  16  93 NW5       30.00S WCI  11
GRAFTON        NOT AVBL
CANDO          FAIR      19  19 100 CALM      29.99S
FORT TOTTEN      N/A     26  22  84 N2        29.95S
ROLLA          FAIR      23  23 100 CALM      29.96S
RUGBY          NOT AVBL
 ***** THE ABOVE OBSERVATIONS ARE NON NWS ARE NOT QUALITY
        CONTROLLED AND MAY MIS-REPORT RAIN FOR SNOW...
$$

 *****  OTHER OBSERVATIONS SOUTHEAST NORTH DAKOTA *****

CITY           SKY/WX    TMP DP  RH WIND       PRES   REMARKS
COOPERSTOWN    FAIR      25  21  86 N7        30.00R WCI  17
VALLEY CITY    NOT AVBL
OAKES            N/A     30  27  86 NW9       30.01S WCI  22
GWINNER          N/A     30  25  80 NW5       30.01R
SHEYENNE NWR     N/A     30  24  78 N7        29.95S WCI  23
BUFFALO          N/A     24  18  79 SW6         N/A  WCI  17
WYNDMERE       NOT AVBL
 ***** THE ABOVE OBSERVATIONS ARE NON NWS ARE NOT QUALITY
       CONTROLLED AND MAY MIS-REPORT RAIN FOR SNOW...
$$

  *****  WEATHER ACROSS NORTHERN MINNESOTA  *****

CITY           SKY/WX    TMP DP  RH WIND       PRES   REMARKS
FLAG ISLAND    CLOUDY    16  12  86 N8        29.95R WCI   5
WARROAD        CLOUDY    18  14  86 NW6       29.96R WCI   9
ROSEAU         CLOUDY    19  16  86 N6        29.96R WCI  11
HALLOCK        CLOUDY    21  18  86 N6        30.00R WCI  14
THF RVR FALLS  CLOUDY    20  16  84 N9        29.97R WCI   9
6HR MIN TEMP:  20; 6HR MAX TEMP:  22;

HALSTAD        NOT AVBL
FOSSTON        CLOUDY    19  16  86 N9        29.95R WCI   9
BAUDETTE       CLOUDY    17  13  84 N9        29.92R WCI   6
6HR MIN TEMP:  17; 6HR MAX TEMP:  19;

WASKISH        CLOUDY    19  18  93 NW3       29.93R
CROOKSTON      CLOUDY    19  18  93 N10       30.01R WCI   8
$$
  *****  WEATHER ACROSS CENTRAL AND WEST MINNESOTA  *****

CITY           SKY/WX    TMP DP  RH WIND       PRES   REMARKS
BEMIDJI        CLOUDY    21  17  87 N7        29.91R WCI  12
6HR MIN TEMP:  10; 6HR MAX TEMP:  22;

PARK RAPIDS    CLOUDY    23  19  85 N10       29.88R WCI  12
6HR MIN TEMP:  12; 6HR MAX TEMP:  23;

WADENA         CLOUDY    23  19  86 NW8       29.91R WCI  14
DETROIT LAKES  CLOUDY    23  21  93 NW9       29.95R WCI  13
MOORHEAD       FAIR      19  18  93 CALM      30.01R
FERGUS FALLS   FAIR      21  18  86 NW13      30.01R WCI   9
ELBOW LAKE     PTSUNNY   24  20  85 NW17G24   29.96R WCI  10
6HR MIN TEMP:  25; 6HR MAX TEMP:  28;

MORRIS MN      MOCLDY    28  21  74 NW18      29.95R WCI  16
STAPLES        CLOUDY    23  19  86 NW7       29.90R WCI  15
WHEATON        NOT AVBL
$$
  *****  WEATHER ELSEWHERE ACROSS MINNESOTA  *****

CITY           SKY/WX    TMP DP  RH WIND       PRES   REMARKS
DULUTH         CLOUDY    20  16  84 N10       29.82R WCI   9
6HR MIN TEMP:  17; 6HR MAX TEMP:  20;

INTRNTL FALLS  LGT SNOW  15  10  80 N10       29.91R WCI   2
6HR MIN TEMP:  16; 6HR MAX TEMP:  17; 6HR PCP: TRACE;

ELY            FLURRIES  14   9  79 NW7       29.85R WCI   4
CLOQUET        CLOUDY    21  16  79 N13       29.84R WCI   9
BRAINERD       CLOUDY    24  19  81 NW9       29.88R WCI  14
6HR MIN TEMP:  16; 6HR MAX TEMP:  25;

HIBBING        CLOUDY    18  13  80 N10       29.85R WCI   6
6HR MIN TEMP:  17; 6HR MAX TEMP:  20;

ALEXANDRIA     CLOUDY    25  20  81 N12G21    29.92R WCI  14
6HR MIN TEMP:  25; 6HR MAX TEMP:  28;

SAINT CLOUD    CLOUDY    25  21  85 NW8       29.89R WCI  16
6HR MIN TEMP:  15; 6HR MAX TEMP:  25;

MINNEAPOLIS    MOCLDY    25  22  88 NW9       29.90R WCI  15
6HR MIN TEMP:  20; 6HR MAX TEMP:  24;

$$

  *****  WEATHER ACROSS SOUTH DAKOTA  *****

CITY           SKY/WX    TMP DP  RH WIND       PRES   REMARKS
SIOUX FALLS    FAIR      30  25  81 NW9       30.00R WCI  22
6HR MIN TEMP:  29; 6HR MAX TEMP:  34;

BROOKINGS      FAIR      26  23  88 NW10      29.97R WCI  16
WATERTOWN      FAIR      31  26  82 NW12      29.96R WCI  22
6HR MIN TEMP:  30; 6HR MAX TEMP:  33;

HURON          FAIR      29  24  82 NW9       30.02R WCI  20
6HR MIN TEMP:  25; 6HR MAX TEMP:  35;

SISSETON         N/A     33  25  72 NW16      29.97R WCI  23
ABERDEEN       FAIR      32  26  78 NW8       30.03R WCI  25
6HR MIN TEMP:  32; 6HR MAX TEMP:  37;

MITCHELL       FAIR      35  25  66 NW13      30.05R
PIERRE         FAIR      39  20  46 W12       30.09S
6HR MIN TEMP:  38; 6HR MAX TEMP:  44;

MOBRIDGE       FAIR      37  23  56 NW10      30.03S
RAPID CITY     FAIR      45   6  20 NW16      30.20R
6HR MIN TEMP:  34; 6HR MAX TEMP:  51;

$$

  *****  SOME WEATHER IN NEARBY STATES *****

CITY           SKY/WX    TMP DP  RH WIND       PRES   REMARKS
GLASGOW MT     FAIR      28  13  53 NW7       30.16F WCI  21
6HR MIN TEMP:  27; 6HR MAX TEMP:  33;

GREAT FALLS MT FAIR      41   8  25 SW21      30.31S
6HR MIN TEMP:  39; 6HR MAX TEMP:  42;

CHEYENNE WY    FAIR      38   0  20 W14       30.37S
6HR MIN TEMP:  35; 6HR MAX TEMP:  39;

SCOTTSBLUFF NE FAIR      25  11  55 NW9       30.34S WCI  15
6HR MIN TEMP:  23; 6HR MAX TEMP:  32;

OMAHA NE       FAIR      39  23  52 NW14G20   30.01R
6HR MIN TEMP:  25; 6HR MAX TEMP:  39;

DES MOINES IA  MOCLDY    30  21  69 NW12      29.94R WCI  20
6HR MIN TEMP:  21; 6HR MAX TEMP:  31;

DAVENPORT IA   FAIR      25  16  68 SW15      29.92F WCI  13
6HR MIN TEMP:  22; 6HR MAX TEMP:  25;

CHICAGO IL     CLOUDY    24  15  68 SW12      29.93F WCI  13
6HR MIN TEMP:  20; 6HR MAX TEMP:  24;

EAU CLAIRE WI  CLOUDY    17  14  88 N3        29.83R
6HR MIN TEMP:  14; 6HR MAX TEMP:  20;

LA CROSSE WI   CLOUDY    22  17  81 S3        29.84R
6HR MIN TEMP:  19; 6HR MAX TEMP:  23;

$$

  *****  SOME NATIONAL WEATHER *****

CITY           SKY/WX    TMP DP  RH WIND       PRES   REMA


USA.gov is the U.S. government's official web portal to all federal, state and local government web resources and services.